Lid_Strength_Index
3 3 3 3 3 3 2 2 1 1 1 1 1 0 0 1 1 6 8 7 6 2 2 6 8 8 9 10 9 8 12 14 13 12 11 9 10 9 9 10 11 9 9 10 5
3 3 3 3 3 3 3 3 2 2 2 1 1 1 1 1 5 8 5 3 2 1 8 8 9 10 12 11 10 10 13 12 9 9 10 10 10 10 10 11 12 12 11 7 7
3 3 2 2 2 2 3 3 3 3 2 2 2 1 1 2 10 11 2 2 1 2 7 8 8 10 12 11 11 11 12 8 9 8 9 10 11 11 11 11 10 11 11 7 7
3 3 3 3 2 2 2 2 3 3 3 2 2 1 1 5 14 9 -0 0 1 5 7 8 10 12 13 13 10 13 9 8 7 8 11 12 11 11 11 10 11 11 11 8 7
3 3 3 3 2 2 2 1 2 2 2 2 2 1 5 11 11 7 1 1 4 6 9 9 11 12 13 13 12 13 10 8 7 8 10 10 11 11 12 11 12 12 11 9 7
4 4 3 3 2 2 2 1 1 0 0 1 1 1 9 14 9 6 7 6 6 7 8 9 11 11 12 12 13 12 11 9 9 10 11 11 12 13 12 12 11 12 12 11 10
4 3 3 3 2 2 1 0 -0 -0 -1 -0 0 2 8 11 9 8 7 8 7 7 9 8 9 11 11 13 12 12 14 13 12 11 12 12 13 14 11 12 11 12 12 11 12
4 4 3 3 3 2 1 0 -1 -1 -1 -1 -1 4 10 7 9 8 8 9 8 6 7 7 8 10 12 11 13 14 15 17 13 12 11 10 14 12 11 13 12 12 12 11 11
4 3 3 3 3 2 1 0 -1 -1 -1 -1 3 8 11 5 9 8 8 10 9 8 8 7 8 12 13 15 17 16 18 17 15 12 14 14 15 12 13 14 14 13 14 13 12
4 3 3 3 3 2 1 1 1 1 1 1 4 10 9 10 8 7 8 7 9 10 10 11 12 15 16 17 20 18 19 17 17 15 16 18 16 13 16 17 16 16 16 15 14
3 3 3 3 2 2 4 7 9 10 8 10 9 9 9 8 7 8 7 8 10 11 14 13 16 16 16 16 16 18 18 19 17 16 17 17 16 14 14 16 16 15 15 15 14
3 3 3 3 3 3 6 9 8 7 11 8 7 7 6 7 9 9 7 11 12 15 14 15 17 13 13 14 15 16 17 18 15 15 17 17 18 14 16 16 14 13 13 14 15
3 3 3 3 4 7 8 8 6 6 10 9 7 7 8 7 9 9 8 11 13 15 14 16 15 12 14 15 16 17 17 17 17 17 18 19 20 16 16 16 15 14 12 13 14
3 3 3 3 8 9 8 6 6 6 18 15 10 9 9 9 11 8 8 11 13 15 15 15 12 14 15 15 15 17 15 15 16 18 21 18 25 18 16 16 16 15 15 13 13
3 3 3 5 10 10 8 6 5 9 26 15 11 7 9 11 11 11 8 10 14 15 15 16 15 14 15 14 14 16 16 16 17 19 20 20 23 20 18 17 16 14 14 14 13
3 3 4 8 10 9 8 6 7 20 26 16 11 12 12 12 12 11 11 10 11 14 14 15 14 14 13 13 13 14 15 15 17 19 28 20 21 21 19 15 14 14 14 14 14
3 4 6 7 11 8 7 10 20 25 17 18 13 12 12 13 13 13 14 15 16 18 17 15 15 14 13 15 13 15 17 21 23 28 26 20 21 20 16 15 14 13 13 14 15
4 5 8 7 7 9 9 16 26 29 25 14 12 12 14 14 13 14 15 16 15 16 18 19 19 15 13 14 16 15 16 21 25 27 25 19 24 19 15 13 13 13 13 14 15
5 10 10 8 8 8 12 24 25 22 13 13 13 19 18 14 14 14 16 16 15 15 18 19 17 15 13 13 13 16 18 14 18 26 26 21 19 16 14 14 13 13 14 14 14
11 12 12 9 8 10 16 20 18 12 13 13 18 18 20 18 15 15 16 15 15 13 14 16 19 15 14 13 13 15 14 19 20 22 28 23 22 20 16 14 14 13 13 14 14
12 15 11 9 9 14 24 21 13 11 12 14 14 17 15 15 14 17 15 15 14 13 12 14 16 17 15 16 16 16 19 18 16 18 25 28 22 17 16 15 15 14 13 14 15
13 20 11 10 18 27 24 14 13 13 13 13 13 14 15 17 19 15 14 14 13 13 16 13 14 19 17 15 14 14 15 15 19 21 20 23 20 13 15 15 15 14 14 14 14
17 16 11 12 24 25 20 15 14 13 14 14 15 14 14 20 22 18 16 12 13 14 15 13 16 20 20 17 16 16 15 14 15 16 19 24 20 14 13 14 15 14 13 14 14
17 21 18 16 16 18 22 20 16 13 13 13 13 13 16 21 17 23 17 14 13 14 12 11 15 17 20 19 18 17 15 14 16 18 19 18 17 14 13 12 12 12 12 14 14
16 20 19 23 21 17 16 16 16 19 14 13 14 14 16 25 23 23 19 16 15 13 14 16 24 18 19 17 17 17 16 15 16 16 17 17 17 15 13 13 12 14 14 14 15
15 16 17 22 17 16 16 18 16 16 15 15 16 14 15 22 18 22 22 20 18 17 18 17 25 19 22 18 16 19 18 16 14 15 15 15 16 13 12 11 13 13 13 14 14
8 10 14 14 16 16 16 16 15 13 13 12 13 17 15 13 12 13 13 14 16 19 20 20 24 27 28 19 19 23 17 15 14 14 15 17 14 11 12 11 11 12 12 13 13